When you browse on this site, cookies collect data to enhance your experience and personalize the content and advertising you see.
Visit our Privacy Policy to learn more. By continuing to use the site, you agree to this use of cookies and data.
  • în România
  • Lista ţărilor
  • Pe 7 zile
  • Temperatura apei
  • Hartă satelitară
  • Meteo pe hartă
  • Widget-uri
  • user-avatar
    Intrare

    Meteo pe oră la Chios

    Astăzi, 25 Mai, Sâmbătă

    Timp Temperatura Precipitaţii Vânt Presiune Umiditate
    00:00 +18°C° 0 mm 2 m/s 754 mmHg 82%
    01:00 +19°C° 0 mm 1 m/s 754 mmHg 83%
    02:00 +19°C° 0 mm 1 m/s 753 mmHg 84%
    03:00 +19°C° 0 mm 1 m/s 754 mmHg 85%
    04:00 +19°C° 0 mm 1 m/s 754 mmHg 85%
    05:00 +17°C° 0 mm 0 m/s 754 mmHg 86%
    06:00 +20°C° 0 mm 1 m/s 754 mmHg 80%
    07:00 +20°C° 0 mm 2 m/s 755 mmHg 75%
    08:00 +21°C° 0 mm 2 m/s 755 mmHg 69%
    09:00 +23°C° 0 mm 2 m/s 755 mmHg 66%
    10:00 +24°C° 0 mm 3 m/s 756 mmHg 63%
    11:00 +24°C° 0 mm 3 m/s 756 mmHg 60%
    12:00 +25°C° 0 mm 3 m/s 756 mmHg 60%
    13:00 +25°C° 0 mm 3 m/s 756 mmHg 60%
    14:00 +25°C° 0 mm 2 m/s 756 mmHg 58%
    15:00 +25°C° 0 mm 2 m/s 756 mmHg 58%
    16:00 +25°C° 0 mm 2 m/s 756 mmHg 59%
    17:00 +25°C° 0 mm 2 m/s 756 mmHg 60%
    18:00 +24°C° 0 mm 1 m/s 756 mmHg 64%
    19:00 +23°C° 0 mm 1 m/s 756 mmHg 68%
    20:00 +22°C° 0 mm 1 m/s 756 mmHg 72%
    21:00 +22°C° 0 mm 1 m/s 756 mmHg 72%
    22:00 +21°C° 0 mm 1 m/s 757 mmHg 73%
    23:00 +21°C° 0 mm 1 m/s 757 mmHg 73%

    Mâine, 26 Mai, Duminică

    Timp Temperatura Precipitaţii Vânt Presiune Umiditate
    00:00 +21°C° 0 mm 1 m/s 757 mmHg 74%
    01:00 +20°C° 0 mm 1 m/s 757 mmHg 75%
    02:00 +18°C° 0 mm 0 m/s 757 mmHg 76%
    03:00 +20°C° 0 mm 1 m/s 757 mmHg 76%
    04:00 +20°C° 0 mm 1 m/s 757 mmHg 76%
    05:00 +20°C° 0 mm 1 m/s 757 mmHg 77%
    06:00 +21°C° 0 mm 1 m/s 757 mmHg 72%
    07:00 +22°C° 0 mm 1 m/s 757 mmHg 67%
    08:00 +23°C° 0 mm 1 m/s 757 mmHg 63%
    09:00 +24°C° 0 mm 1 m/s 757 mmHg 58%
    10:00 +25°C° 0 mm 1 m/s 757 mmHg 54%
    11:00 +25°C° 0 mm 0 m/s 758 mmHg 50%
    12:00 +27°C° 0 mm 1 m/s 757 mmHg 48%
    13:00 +27°C° 0 mm 2 m/s 757 mmHg 45%
    14:00 +28°C° 0 mm 3 m/s 757 mmHg 43%
    15:00 +27°C° 0 mm 3 m/s 757 mmHg 44%
    16:00 +27°C° 0 mm 3 m/s 756 mmHg 44%
    17:00 +27°C° 0 mm 3 m/s 756 mmHg 45%
    18:00 +26°C° 0 mm 3 m/s 756 mmHg 50%
    19:00 +24°C° 0 mm 3 m/s 756 mmHg 56%
    20:00 +22°C° 0 mm 3 m/s 756 mmHg 61%
    21:00 +22°C° 0 mm 3 m/s 756 mmHg 62%
    22:00 +22°C° 0 mm 3 m/s 757 mmHg 63%
    23:00 +22°C° 0 mm 3 m/s 757 mmHg 65%

    Poimâine, 27 Mai, Luni

    Timp Temperatura Precipitaţii Vânt Presiune Umiditate
    00:00 +21°C° 0 mm 3 m/s 756 mmHg 66%
    01:00 +21°C° 0 mm 3 m/s 756 mmHg 68%
    02:00 +21°C° 0 mm 2 m/s 756 mmHg 69%
    03:00 +21°C° 0 mm 3 m/s 756 mmHg 70%
    04:00 +21°C° 0 mm 3 m/s 755 mmHg 71%
    05:00 +21°C° 0 mm 3 m/s 755 mmHg 73%
    06:00 +22°C° 0 mm 3 m/s 755 mmHg 68%
    07:00 +24°C° 0 mm 2 m/s 756 mmHg 63%
    08:00 +25°C° 0 mm 2 m/s 756 mmHg 58%
    09:00 +26°C° 0 mm 2 m/s 756 mmHg 54%
    10:00 +27°C° 0 mm 1 m/s 756 mmHg 50%
    11:00 +29°C° 0 mm 1 m/s 756 mmHg 46%
    12:00 +29°C° 0 mm 1 m/s 756 mmHg 44%
    13:00 +30°C° 0 mm 1 m/s 755 mmHg 43%
    14:00 +31°C° 0 mm 1 m/s 755 mmHg 41%
    15:00 +30°C° 0 mm 1 m/s 755 mmHg 42%
    16:00 +29°C° 0 mm 1 m/s 755 mmHg 43%
    17:00 +29°C° 0 mm 2 m/s 755 mmHg 44%
    18:00 +28°C° 0 mm 1 m/s 755 mmHg 49%
    19:00 +26°C° 0 mm 1 m/s 755 mmHg 54%
    20:00 +23°C° 0 mm 0 m/s 755 mmHg 59%
    21:00 +25°C° 0 mm 1 m/s 755 mmHg 59%
    22:00 +24°C° 0 mm 1 m/s 755 mmHg 58%
    23:00 +24°C° 0 mm 2 m/s 755 mmHg 58%

    28 Mai, Marţi

    Timp Temperatura Precipitaţii Vânt Presiune Umiditate
    00:00 +24°C° 0 mm 2 m/s 754 mmHg 58%
    01:00 +24°C° 0 mm 2 m/s 754 mmHg 58%
    02:00 +22°C° 0 mm 3 m/s 754 mmHg 59%
    03:00 +22°C° 0 mm 3 m/s 754 mmHg 60%
    04:00 +23°C° 0 mm 2 m/s 754 mmHg 61%
    05:00 +21°C° 0 mm 2 m/s 753 mmHg 62%
    06:00 +22°C° 0 mm 3 m/s 754 mmHg 59%
    07:00 +25°C° 0 mm 3 m/s 754 mmHg 56%
    08:00 +26°C° 0 mm 3 m/s 754 mmHg 54%
    09:00 +27°C° 0 mm 4 m/s 754 mmHg 50%
    10:00 +28°C° 0 mm 4 m/s 754 mmHg 46%
    11:00 +29°C° 0 mm 5 m/s 754 mmHg 43%
    12:00 +28°C° 0 mm 5 m/s 754 mmHg 43%
    13:00 +28°C° 0 mm 6 m/s 754 mmHg 44%
    14:00 +28°C° 0 mm 6 m/s 754 mmHg 45%
    15:00 +27°C° 0 mm 6 m/s 754 mmHg 48%
    16:00 +27°C° 0 mm 6 m/s 753 mmHg 51%
    17:00 +26°C° 0 mm 6 m/s 753 mmHg 54%
    18:00 +24°C° 0 mm 6 m/s 753 mmHg 60%
    19:00 +23°C° 0 mm 5 m/s 753 mmHg 67%
    20:00 +22°C° 0 mm 5 m/s 754 mmHg 73%
    21:00 +22°C° 0 mm 5 m/s 754 mmHg 74%
    22:00 +22°C° 0 mm 5 m/s 754 mmHg 76%
    23:00 +21°C° 0 mm 6 m/s 754 mmHg 77%

    29 Mai, Miercuri

    Timp Temperatura Precipitaţii Vânt Presiune Umiditate
    00:00 +21°C° 0 mm 5 m/s 754 mmHg 80%
    01:00 +21°C° 0 mm 5 m/s 754 mmHg 82%
    02:00 +20°C° 0 mm 5 m/s 754 mmHg 85%
    03:00 +20°C° 0 mm 5 m/s 754 mmHg 86%
    04:00 +20°C° 0 mm 5 m/s 754 mmHg 88%
    05:00 +20°C° 0 mm 4 m/s 754 mmHg 90%
    06:00 +21°C° 0 mm 4 m/s 754 mmHg 86%
    07:00 +22°C° 0 mm 4 m/s 754 mmHg 81%
    08:00 +23°C° 0 mm 4 m/s 755 mmHg 77%
    09:00 +23°C° 0 mm 4 m/s 755 mmHg 73%
    10:00 +25°C° 0 mm 4 m/s 755 mmHg 69%
    11:00 +26°C° 0 mm 4 m/s 755 mmHg 65%
    12:00 +26°C° 0 mm 4 m/s 755 mmHg 64%
    13:00 +26°C° 0 mm 4 m/s 755 mmHg 63%
    14:00 +26°C° 0 mm 3 m/s 755 mmHg 62%
    15:00 +26°C° 0 mm 3 m/s 755 mmHg 62%
    16:00 +26°C° 0 mm 3 m/s 755 mmHg 63%
    17:00 +25°C° 0 mm 2 m/s 755 mmHg 64%
    18:00 +24°C° 0 mm 2 m/s 755 mmHg 69%
    19:00 +23°C° 0 mm 2 m/s 755 mmHg 73%
    20:00 +21°C° 0 mm 2 m/s 755 mmHg 78%
    21:00 +21°C° 0 mm 2 m/s 755 mmHg 79%
    22:00 +21°C° 0 mm 2 m/s 755 mmHg 80%
    23:00 +21°C° 0 mm 2 m/s 755 mmHg 81%

    30 Mai, Joi

    Timp Temperatura Precipitaţii Vânt Presiune Umiditate
    00:00 +20°C° 0 mm 2 m/s 755 mmHg 81%
    01:00 +20°C° 0 mm 2 m/s 755 mmHg 82%
    02:00 +20°C° 0 mm 2 m/s 755 mmHg 82%
    03:00 +20°C° 0 mm 2 m/s 755 mmHg 82%
    04:00 +20°C° 0 mm 2 m/s 755 mmHg 82%
    05:00 +20°C° 0 mm 2 m/s 755 mmHg 83%
    06:00 +22°C° 0 mm 1 m/s 755 mmHg 77%
    07:00 +23°C° 0 mm 1 m/s 755 mmHg 72%
    08:00 +22°C° 0 mm 0 m/s 755 mmHg 66%
    09:00 +25°C° 0 mm 1 m/s 755 mmHg 62%
    10:00 +26°C° 0 mm 1 m/s 755 mmHg 59%
    11:00 +27°C° 0 mm 1 m/s 756 mmHg 55%
    12:00 +27°C° 0 mm 2 m/s 755 mmHg 55%
    13:00 +27°C° 0 mm 2 m/s 755 mmHg 55%
    14:00 +27°C° 0 mm 3 m/s 755 mmHg 55%
    15:00 +27°C° 0 mm 3 m/s 755 mmHg 56%
    16:00 +27°C° 0 mm 2 m/s 755 mmHg 58%
    17:00 +26°C° 0 mm 2 m/s 755 mmHg 59%
    18:00 +25°C° 0 mm 2 m/s 755 mmHg 63%
    19:00 +24°C° 0 mm 1 m/s 755 mmHg 67%
    20:00 +23°C° 0 mm 1 m/s 755 mmHg 71%
    21:00 +23°C° 0 mm 1 m/s 755 mmHg 72%
    22:00 +23°C° 0 mm 1 m/s 755 mmHg 72%
    23:00 +23°C° 0 mm 1 m/s 755 mmHg 73%
    Arată mai mult